Location: Ulm
(48.3980°N, 9.9777°E)
Time: 22:25:19
(UTC+02:00)

ISS - Visible Passes

Search period start: 25 September 2020 00:00
Search period end: 05 October 2020 00:00
Orbit: 419 x 420 km, 51.6° (Epoch: 26 September)

Date Brightness Start Highest point End Pass type
(mag) Time Alt. Az. Time Alt. Az. Time Alt. Az.
25 Sep -3.0 20:58:12 10° WNW 21:01:29 46° N 21:02:08 39° NE visible
26 Sep -3.0 20:10:43 10° W 20:14:00 47° N 20:16:31 16° ENE visible
26 Sep -1.6 21:47:46 10° WNW 21:49:28 27° WNW 21:49:28 27° WNW visible
27 Sep -3.4 21:00:21 10° WNW 21:03:40 52° N 21:03:50 52° NNE visible
28 Sep -3.1 20:12:53 10° WNW 20:16:11 47° N 20:18:11 20° ENE visible
28 Sep -1.3 21:49:47 10° WNW 21:51:09 22° WNW 21:51:09 22° WNW visible
29 Sep -3.6 21:02:21 10° WNW 21:05:30 73° NNW 21:05:30 73° NNW visible
30 Sep -3.6 20:14:55 10° WNW 20:18:17 62° NNE 20:19:53 27° E visible
30 Sep -0.9 21:51:52 10° WNW 21:52:51 17° W 21:52:51 17° W visible
01 Oct -3.3 19:27:28 10° WNW 19:30:47 52° N 19:34:05 10° E visible
01 Oct -3.1 21:04:20 10° WNW 21:07:15 50° WSW 21:07:15 50° WSW visible
02 Oct -3.7 20:16:50 10° WNW 20:20:14 77° SSW 20:21:42 31° ESE visible
02 Oct -0.5 21:54:25 10° W 21:54:40 11° W 21:54:40 11° W visible
03 Oct -3.7 19:29:23 10° WNW 19:32:46 79° NNE 19:36:08 10° ESE visible
03 Oct -1.9 21:06:31 10° W 21:09:10 24° SW 21:09:10 24° SW visible
04 Oct -2.5 20:18:50 10° WNW 20:21:58 36° SW 20:23:45 20° SSE visible
